Погода в Санто-Доминго

Доминиканская Республика     18°28′44″N   69°55′11″W
темп.,
°C
ветер,
м/с
пор.,
м/с
влажн.,
%
обл.,
%
осадки,
мм/ч
давл.,
гПа
погр.,
м
29 ноября, пн
пн2923:00+22ссз238410 0.0 101582
02:00+22с23865 0.0 101368
05:00+21ссз23905 0.0 101370
08:00+23ссз228326 0.0 1015103
11:00+29в225821 0.0 1015964
14:00+30юв32507 0.0 10121382
17:00+27ююв34675 0.0 1012438
20:00+24з118427 0.0 101437
30 ноября, вт
вт3023:00+22ссз228598 0.0 101566
02:00+22ссз2385100 0.0 101474
05:00+21с3490100 0.0 1014105
08:00+23с368236 0.0 1016196
11:00+29ссв455522 0.0 10161065
14:00+31ссв345059 0.0 10141510
17:00+28ссв686596 0.2 1013627
20:00+24с488243 0.4 1016366
1 декабря, ср
ср123:00+23ссз498720 0.0 1017305
02:00+22ссз388916 0.0 1016237
05:00+22с37876 0.0 1016190
08:00+23с378039 0.0 1017275
11:00+29ссв566097 0.0 10181357
14:00+31св454774 0.1 10151855
17:00+30всв3552100 0.0 10141039
20:00+24ссв38827 0.1 1017290
2 декабря, чт
чт223:00+23ссз368862 0.1 1017146
02:00+22ссз359081 0.1 1016155
05:00+22ссз34928 0.0 1016116
08:00+23ссз3585100 0.0 1017173
11:00+29св3463100 0.0 10171140
14:00+31в235236 0.1 10131568
17:00+28юв346797 0.1 1013345
20:00+25ссв248037 0.1 1015162
3 декабря, пт
пт323:00+23с2491100 0.1 1015117
02:00+22с249294 0.1 1014101
05:00+22с349429 0.0 1014116
08:00+23ссз358862 0.0 1015180
11:00+29ссв456285 0.0 10151207
14:00+31св345093 0.1 10121729
17:00+28св366563 0.3 1012533
20:00+23с3691100 0.9 1014190